Regional Weather Roundup
Issued by NWS Newport/Morehead, NC

Current Version | Previous Version | Text Only | Print | Product List | Glossary On
Versions: 1 2 3 4 5 6 7 8 9 10 11 12 13 14 15 16 17 18 19 20 21 22 23 24 25 26 27 28 29 30 31 32 33 34 35 36 37 38 39 40 41 42 43 44 45 46 47 48 49 50
000
ASUS42 KMHX 040825
RWRMHX
WEATHER ROUNDUP FOR EASTERN NORTH CAROLINA
NATIONAL WEATHER SERVICE NEWPORT/MOREHEAD CITY NC
400 AM EDT WED MAY 04 2016

NOTE: "FAIR" INDICATES FEW OR NO CLOUDS BELOW 12,000 FEET
WITH NO SIGNIFICANT WEATHER AND/OR OBSTRUCTIONS TO VISIBILITY

NCZ015>017-031-032-045>047-102-103-040900-
NORTH COAST

CITY           SKY/WX    TMP DP  RH WIND       PRES   REMARKS
EDENTON        CLOUDY    64  64 100 CALM      29.67R
ELIZABETH CITY PTCLDY    62  62 100 W3        29.67R
KITTY HAWK     CLOUDY    64  62  95 CALM      29.65R
MANTEO         NOT AVBL

$$

NCZ045>047-081-094-103-104-040900-
CENTRAL COAST

CITY           SKY/WX    TMP DP  RH WIND       PRES   REMARKS
FRISCO         RAIN      67  66  97 SW8       29.70R FOG
SWANQUARTER    NOT AVBL

$$

NCZ095-097-098-100-101-040900-
SOUTHERN COAST

CITY           SKY/WX    TMP DP  RH WIND       PRES   REMARKS
BEAUFORT       MOCLDY    68  66  93 NW5       29.67F
CEDAR ISLAND   NOT AVBL
JACKSONVILLE   CLOUDY    68  66  93 CALM      29.67F FOG
PINEY ISLAND   NOT AVBL
WILMINGTON     CLEAR     68  64  87 SW8       29.68F


$$

NCZ011>013-027>030-043-044-078>080-089-090>093-098-040900-
COASTAL PLAIN

CITY           SKY/WX    TMP DP  RH WIND       PRES   REMARKS
AHOSKIE        CLEAR     60  59  97 CALM      29.66F FOG
CLINTON        CLOUDY    66  65  99 CALM      29.69S
ELIZABETHTOWN  CLEAR     68  68  99 CALM      29.67F
GOLDSBORO      MOCLDY    64  64 100 NW6       29.66F
GREENVILLE     PTCLDY    61  61 100 CALM      29.70F
HAVELOCK       CLOUDY    64  62  93 CALM      29.69F
KENANSVILLE    CLOUDY    65  64  97 CALM      29.69S
KINSTON        MOCLDY    64  63  97 CALM      29.68S
NEW BERN       CLOUDY    64  61  90 CALM      29.69R
RICHLANDS      CLOUDY    68  67  96 CALM      29.67F FOG
ROCKY MOUNT    CLOUDY    60  60 100 SW3       29.68S FOG
WASHINGTON     CLOUDY    62  61  96 CALM      29.67R
WHITEVILLE     NOT AVBL

$$

AMZ130-135-150-152-154-156-158-170-250-252-270-ANZ085-086-088-633-658-670-040900-
MARINE OBSERVATIONS

STATION/POSITION TIME  TEMP    WIND        PRES    WAVE   SWELL
                       AIR SEA DIR/SP/G            HT/PER HT/PER
                 (UTC) (F)     (DEG/KT/KT) (MB)    (FT/S) (FT/S)
CHESAPEAKE LIGHT 0800   55      10/ 19/ 20 1005.1
64 E VA BEACH    0750   56 55  160/  6/  6 1004.0    3/ 7   3/ 7
DUCK             NOT AVBL
2 E DUCK         0711      58                N/A     2/ 8
OREGON INLET     0800   68 71  180/  4/  5 1004.1
13E OREGON INLT  0800      62                N/A     4/ 6   5/ 6
HATTERAS CG      0800   68 69  270/ 12/ 14 1005.2
DIAMOND BUOY     0750   73 72  230/ 12/ 14 1004.3    4/ 6   3/ 7
CAPE LOOKOUT     0800   70     260/ 14/ 18 1004.2
BEAUFORT LAB     0800   69 67  310/  4/  7 1003.9
30 SE NEW RVR IN 0725      72                N/A     6/ 7
27 SE WRIGHTSVLE 0708   73 72  260/ 17/ 23   N/A
5 SE WRIGHTSVLE  0708   72 70  260/ 16/ 19 1005.6
225 S CAPE HAT   0750   73 74  200/ 14/ 17 1008.8    6/ 7   3/ 7
41 SE CHARLESTON 0750   73 75  170/ 14/ 16 1006.3    3/ 7   2/ 7

$$




USA.gov is the U.S. government's official web portal to all federal, state and local government web resources and services.